Weather History for Monett, MO

Change the Weather History Date:

Saturday, July 13, 2013

  Actual Average (KJLN) Record (KJLN)
Temperature  
Mean Temperature 75 °F 80 °F  
Max Temperature 86 °F 91 °F 113 °F (1954)
Min Temperature 64 °F 70 °F 50 °F (1975)
Degree Days  
Heating Degree Days 0 0  
Month to date heating degree days 0  
Since 1 June heating degree days 5  
Since 1 July heating degree days 0  
Cooling Degree Days 10 15  
Month to date cooling degree days 191  
Year to date cooling degree days 689  
Since 1 June cooling degree days 509  
Growing Degree Days 25 (Base 50)    
Moisture  
Dew Point 56 °F    
Average Humidity 53    
Maximum Humidity 68    
Minimum Humidity 37    
Precipitation  
Precipitation 0.00 in 0.13 in 2.81 in (2010)
Month to date precipitation 1.81  
Year to date precipitation 25.62  
Sea Level Pressure  
Sea Level Pressure 30.04 in    
Wind  
Wind Speed 7 mph (ESE)    
Max Wind Speed 10 mph    
Max Gust Speed -    
Visibility 10 miles    
Events      
T = Trace of Precipitation, MM = Missing Value Source: NWS Daily Summary

Daily Weather History Graph

Daily Weather History Graph

Search for Another Location

Airport:

Trip Planner

Search our weather history database for the weather conditions in past years. The results will help you decide how hot, cold, wet, or windy it might be!

Date:

Astronomy

Jul. 13, 2013 Rise Set
Actual Time 6:07 AM CDT 8:36 PM CDT
Civil Twilight 5:37 AM CDT 9:06 PM CDT
Nautical Twilight 5:00 AM CDT 9:43 PM CDT
Astronomical Twilight 4:18 AM CDT 10:24 PM CDT
Moon 11:15 AM CDT (7/13) 11:26 PM CDT (7/13)
Length of Visible Light 15h 28m
Length of Day
14h 28m
Waxing Crescent, 26% of the Moon is Illuminated
Jul 13
Waxing Crescent
Jul 15
First Quarter
Jul 22
Full
Jul 29
Last Quarter
Aug 6
New

Hourly Weather History & Observations

Time (CDT) Temp. Heat Index Dew Point Humidity Pressure Visibility Wind Dir Wind Speed Gust Speed Precip Events Conditions
12:15 AM 69.8 °F - 51.8 °F 53% 30.03 in 10.0 mi ESE 8.1 mph - N/A   Clear
12:35 AM 69.8 °F - 53.6 °F 56% 30.03 in 10.0 mi ESE 5.8 mph - N/A   Clear
12:55 AM 69.8 °F - 51.8 °F 53% 30.03 in 10.0 mi ESE 6.9 mph - N/A   Clear
1:15 AM 68.0 °F - 51.8 °F 56% 30.03 in 10.0 mi ESE 5.8 mph - N/A   Clear
1:35 AM 68.0 °F - 51.8 °F 56% 30.04 in 10.0 mi ESE 5.8 mph - N/A   Clear
1:55 AM 68.0 °F - 51.8 °F 56% 30.04 in 10.0 mi ESE 5.8 mph - N/A   Clear
2:15 AM 68.0 °F - 51.8 °F 56% 30.04 in 10.0 mi SE 5.8 mph - N/A   Clear
2:35 AM 66.2 °F - 51.8 °F 60% 30.04 in 10.0 mi SE 5.8 mph - N/A   Clear
2:55 AM 64.4 °F - 51.8 °F 64% 30.05 in 10.0 mi ESE 6.9 mph - N/A   Clear
3:15 AM 64.4 °F - 51.8 °F 64% 30.05 in 10.0 mi ESE 6.9 mph - N/A   Clear
3:35 AM 64.4 °F - 53.6 °F 68% 30.05 in 10.0 mi ESE 8.1 mph - N/A   Clear
3:55 AM 64.4 °F - 53.6 °F 68% 30.05 in 10.0 mi ESE 6.9 mph - N/A   Clear
4:15 AM 64.4 °F - 53.6 °F 68% 30.05 in 10.0 mi ESE 6.9 mph - N/A   Clear
4:35 AM 64.4 °F - 53.6 °F 68% 30.05 in 10.0 mi SE 8.1 mph - N/A   Clear
4:55 AM 64.4 °F - 53.6 °F 68% 30.05 in 10.0 mi SE 8.1 mph - N/A   Clear
5:15 AM 64.4 °F - 53.6 °F 68% 30.05 in 10.0 mi SE 8.1 mph - N/A   Clear
5:35 AM 64.4 °F - 53.6 °F 68% 30.05 in 10.0 mi SE 6.9 mph - N/A   Clear
5:55 AM 64.4 °F - 53.6 °F 68% 30.06 in 10.0 mi ESE 9.2 mph - N/A   Clear
6:15 AM 64.4 °F - 53.6 °F 68% 30.06 in 10.0 mi SE 6.9 mph - N/A   Clear
6:35 AM 64.4 °F - 53.6 °F 68% 30.06 in 10.0 mi SE 6.9 mph - N/A   Clear
6:55 AM 64.4 °F - 53.6 °F 68% 30.06 in 10.0 mi SE 5.8 mph - N/A   Clear
7:15 AM 66.2 °F - 53.6 °F 64% 30.06 in 10.0 mi SE 6.9 mph - N/A   Clear
7:35 AM 68.0 °F - 53.6 °F 60% 30.06 in 10.0 mi SE 6.9 mph - N/A   Clear
7:55 AM 71.6 °F - 55.4 °F 57% 30.06 in 10.0 mi SSE 9.2 mph - N/A   Clear
8:15 AM 71.6 °F - 55.4 °F 57% 30.06 in 10.0 mi SSE 10.4 mph - N/A   Clear
8:35 AM 73.4 °F - 55.4 °F 53% 30.07 in 10.0 mi SE 8.1 mph - N/A   Clear
8:55 AM 75.2 °F - 55.4 °F 50% 30.07 in 10.0 mi SSE 9.2 mph - N/A   Clear
9:15 AM 77.0 °F - 55.4 °F 47% 30.08 in 10.0 mi SSE 8.1 mph - N/A   Clear
9:35 AM 77.0 °F - 55.4 °F 47% 30.08 in 10.0 mi South 9.2 mph - N/A   Clear
9:55 AM 78.8 °F - 55.4 °F 44% 30.08 in 10.0 mi SSE 9.2 mph - N/A   Clear
10:15 AM 78.8 °F - 55.4 °F 44% 30.08 in 10.0 mi SSE 9.2 mph - N/A   Clear
10:35 AM 78.8 °F - 55.4 °F 44% 30.08 in 10.0 mi SE 6.9 mph - N/A   Clear
10:55 AM 80.6 °F 80.5 °F 55.4 °F 42% 30.08 in 10.0 mi SSE 8.1 mph - N/A   Clear
11:15 AM 80.6 °F 80.5 °F 55.4 °F 42% 30.08 in 10.0 mi SE 6.9 mph - N/A   Scattered Clouds
11:35 AM 82.4 °F 82.0 °F 57.2 °F 42% 30.08 in 10.0 mi South 5.8 mph - N/A   Clear
11:55 AM 80.6 °F 80.8 °F 57.2 °F 45% 30.08 in 10.0 mi ESE 3.5 mph - N/A   Scattered Clouds
12:15 PM 82.4 °F 81.7 °F 55.4 °F 39% 30.07 in 10.0 mi ESE 3.5 mph - N/A   Scattered Clouds
12:35 PM 82.4 °F 82.0 °F 57.2 °F 42% 30.06 in 10.0 mi South 5.8 mph - N/A   Clear
12:55 PM 84.2 °F 83.0 °F 55.4 °F 37% 30.05 in 10.0 mi Calm Calm - N/A   Clear
1:15 PM 84.2 °F 83.0 °F 55.4 °F 37% 30.05 in 10.0 mi East 5.8 mph - N/A   Clear
1:35 PM 86.0 °F 84.9 °F 57.2 °F 37% 30.05 in 10.0 mi SSE 3.5 mph - N/A   Clear
1:55 PM 86.0 °F 85.4 °F 59.0 °F 40% 30.05 in 10.0 mi SE 5.8 mph - N/A   Clear
2:15 PM 86.0 °F 85.4 °F 59.0 °F 40% 30.04 in 10.0 mi ESE 3.5 mph - N/A   Scattered Clouds
2:35 PM 86.0 °F 85.4 °F 59.0 °F 40% 30.04 in 10.0 mi East 6.9 mph - N/A   Mostly Cloudy
2:55 PM 86.0 °F 85.4 °F 59.0 °F 40% 30.04 in 10.0 mi East 6.9 mph - N/A   Scattered Clouds
3:15 PM 86.0 °F 85.4 °F 59.0 °F 40% 30.03 in 10.0 mi East 6.9 mph - N/A   Mostly Cloudy
3:35 PM 86.0 °F 85.4 °F 59.0 °F 40% 30.02 in 10.0 mi East 3.5 mph - N/A   Scattered Clouds
3:55 PM 86.0 °F 86.1 °F 60.8 °F 43% 30.02 in 10.0 mi East 3.5 mph - N/A   Clear
4:15 PM 86.0 °F 85.4 °F 59.0 °F 40% 30.02 in 10.0 mi East 9.2 mph - N/A   Clear
4:35 PM 86.0 °F 85.4 °F 59.0 °F 40% 30.02 in 10.0 mi ENE 6.9 mph - N/A   Clear
4:55 PM 84.2 °F 83.8 °F 59.0 °F 42% 30.02 in 10.0 mi ENE 9.2 mph - N/A   Clear
5:15 PM 82.4 °F 82.5 °F 59.0 °F 45% 30.02 in 10.0 mi East 5.8 mph - N/A   Clear
5:35 PM 82.4 °F 82.5 °F 59.0 °F 45% 30.02 in 10.0 mi East 5.8 mph - N/A   Clear
5:55 PM 80.6 °F 81.1 °F 59.0 °F 48% 30.02 in 10.0 mi ENE 9.2 mph - N/A   Clear
6:15 PM 82.4 °F 82.0 °F 57.2 °F 42% 30.01 in 10.0 mi ENE 5.8 mph - N/A   Clear
6:35 PM 80.6 °F 81.1 °F 59.0 °F 48% 30.01 in 10.0 mi East 6.9 mph - N/A   Mostly Cloudy
6:55 PM 80.6 °F 81.1 °F 59.0 °F 48% 30.00 in 10.0 mi East 3.5 mph - N/A   Scattered Clouds
7:15 PM 80.6 °F 81.1 °F 59.0 °F 48% 30.01 in 10.0 mi East 4.6 mph - N/A   Scattered Clouds
7:35 PM 78.8 °F - 59.0 °F 51% 30.01 in 10.0 mi East 4.6 mph - N/A   Clear
7:55 PM 78.8 °F - 59.0 °F 51% 30.00 in 10.0 mi East 4.6 mph - N/A   Clear
8:15 PM 77.0 °F - 59.0 °F 54% 30.00 in 10.0 mi East 5.8 mph - N/A   Clear
8:35 PM 77.0 °F - 59.0 °F 54% 30.00 in 10.0 mi East 8.1 mph - N/A   Clear
8:55 PM 77.0 °F - 57.2 °F 50% 30.00 in 10.0 mi East 5.8 mph - N/A   Clear
9:15 PM 73.4 °F - 59.0 °F 61% 30.00 in 10.0 mi ESE 4.6 mph - N/A   Clear
9:35 PM 73.4 °F - 59.0 °F 61% 29.99 in 10.0 mi SE 4.6 mph - N/A   Clear
9:55 PM 73.4 °F - 59.0 °F 61% 30.00 in 10.0 mi ESE 4.6 mph - N/A   Clear
10:15 PM 73.4 °F - 59.0 °F 61% 30.01 in 10.0 mi East 8.1 mph - N/A   Clear
10:35 PM 73.4 °F - 57.2 °F 57% 30.01 in 10.0 mi East 6.9 mph - N/A   Clear
10:55 PM 73.4 °F - 57.2 °F 57% 30.03 in 10.0 mi East 10.4 mph - N/A   Clear
11:15 PM 73.4 °F - 57.2 °F 57% 30.03 in 10.0 mi East 6.9 mph - N/A   Clear
11:35 PM 73.4 °F - 59.0 °F 61% 30.03 in 10.0 mi East 5.8 mph - N/A   Clear
11:55 PM 71.6 °F - 59.0 °F 64% 30.03 in 10.0 mi East 4.6 mph - N/A   Clear